Time,TemperatureF,DewpointF,PressureIn,WindDirection,WindDirectionDegrees,WindSpeedMPH,WindSpeedGustMPH,Humidity,HourlyPrecipIn,Conditions,Clouds,dailyrainin,SoftwareType,DateUTC
2013-08-16 00:06:00,70.7,56.1,29.96,West,270,6.8,-999.0,60,-99.99,,,0.00,Acu-Link.com,2013-08-16 04:06:00,
2013-08-16 00:22:00,70.2,57.0,29.96,West,270,5.3,-999.0,63,-99.99,,,0.00,Acu-Link.com,2013-08-16 04:22:00,
2013-08-16 00:37:00,69.4,58.4,29.96,West,270,6.8,-999.0,68,-99.99,,,0.00,Acu-Link.com,2013-08-16 04:37:00,
2013-08-16 00:52:00,68.7,57.7,29.95,West,270,2.7,-999.0,68,-99.99,,,0.00,Acu-Link.com,2013-08-16 04:52:00,
2013-08-16 01:08:00,68.5,57.9,29.95,West,270,4.2,-999.0,69,-99.99,,,0.00,Acu-Link.com,2013-08-16 05:08:00,
2013-08-16 01:23:00,68.2,58.0,29.95,SSW,202,4.2,-999.0,70,-99.99,,,0.00,Acu-Link.com,2013-08-16 05:23:00,
2013-08-16 01:38:00,67.6,57.1,29.95,West,270,5.8,-999.0,69,-99.99,,,0.00,Acu-Link.com,2013-08-16 05:38:00,
2013-08-16 01:54:00,67.6,57.1,29.95,West,270,5.3,-999.0,69,-99.99,,,0.00,Acu-Link.com,2013-08-16 05:54:00,
2013-08-16 02:09:00,67.3,56.8,29.95,West,270,2.7,-999.0,69,-99.99,,,0.00,Acu-Link.com,2013-08-16 06:09:00,
2013-08-16 02:24:00,67.3,57.2,29.95,West,270,3.7,-999.0,70,-99.99,,,0.00,Acu-Link.com,2013-08-16 06:24:00,
2013-08-16 02:39:00,66.6,56.9,29.95,West,270,3.2,-999.0,71,-99.99,,,0.00,Acu-Link.com,2013-08-16 06:39:00,
2013-08-16 02:54:00,66.6,57.7,29.94,West,270,2.7,-999.0,73,-99.99,,,0.00,Acu-Link.com,2013-08-16 06:54:00,
2013-08-16 03:10:00,66.4,57.5,29.95,West,270,3.7,-999.0,73,-99.99,,,0.00,Acu-Link.com,2013-08-16 07:10:00,
2013-08-16 03:25:00,66.4,57.5,29.95,WNW,292,1.7,-999.0,73,-99.99,,,0.00,Acu-Link.com,2013-08-16 07:25:00,
2013-08-16 03:40:00,66.2,56.9,29.95,West,270,2.7,-999.0,72,-99.99,,,0.00,Acu-Link.com,2013-08-16 07:40:00,
2013-08-16 03:55:00,66.0,57.1,29.95,West,270,2.2,-999.0,73,-99.99,,,0.00,Acu-Link.com,2013-08-16 07:55:00,
2013-08-16 04:10:00,65.7,57.6,29.95,West,270,2.7,-999.0,75,-99.99,,,0.00,Acu-Link.com,2013-08-16 08:10:00,
2013-08-16 04:25:00,65.7,57.6,29.95,West,270,3.7,-999.0,75,-99.99,,,0.00,Acu-Link.com,2013-08-16 08:25:00,
2013-08-16 04:41:00,65.5,58.1,29.95,West,270,3.2,-999.0,77,-99.99,,,0.00,Acu-Link.com,2013-08-16 08:41:00,
2013-08-16 04:56:00,65.3,58.3,29.95,WSW,247,0.0,-999.0,78,-99.99,,,0.00,Acu-Link.com,2013-08-16 08:56:00,
2013-08-16 05:11:00,64.9,58.2,29.95,West,270,1.7,-999.0,79,-99.99,,,0.00,Acu-Link.com,2013-08-16 09:11:00,
2013-08-16 05:26:00,64.8,58.1,29.95,West,270,0.0,-999.0,79,-99.99,,,0.00,Acu-Link.com,2013-08-16 09:26:00,
2013-08-16 05:42:00,64.8,58.1,29.96,West,270,0.0,-999.0,79,-99.99,,,0.00,Acu-Link.com,2013-08-16 09:42:00,
2013-08-16 05:57:00,64.6,57.9,29.96,West,270,0.0,-999.0,79,-99.99,,,0.00,Acu-Link.com,2013-08-16 09:57:00,
2013-08-16 06:12:00,64.8,58.1,29.96,West,270,0.0,-999.0,79,-99.99,,,0.00,Acu-Link.com,2013-08-16 10:12:00,
2013-08-16 06:27:00,64.8,57.8,29.96,WNW,292,0.0,-999.0,78,-99.99,,,0.00,Acu-Link.com,2013-08-16 10:27:00,
2013-08-16 06:43:00,64.8,57.4,29.97,West,270,0.0,-999.0,77,-99.99,,,0.00,Acu-Link.com,2013-08-16 10:43:00,
2013-08-16 06:58:00,64.9,57.5,29.97,West,270,0.0,-999.0,77,-99.99,,,0.00,Acu-Link.com,2013-08-16 10:58:00,
2013-08-16 07:13:00,64.9,57.5,29.97,West,270,0.0,-999.0,77,-99.99,,,0.00,Acu-Link.com,2013-08-16 11:13:00,
2013-08-16 07:29:00,65.5,58.1,29.96,WSW,247,0.0,-999.0,77,-99.99,,,0.00,Acu-Link.com,2013-08-16 11:29:00,
2013-08-16 07:44:00,65.7,57.9,29.96,WSW,247,0.0,-999.0,76,-99.99,,,0.00,Acu-Link.com,2013-08-16 11:44:00,
2013-08-16 07:59:00,66.4,57.9,29.97,WNW,292,1.7,-999.0,74,-99.99,,,0.00,Acu-Link.com,2013-08-16 11:59:00,
2013-08-16 08:15:00,66.6,57.3,29.97,WSW,247,1.1,-999.0,72,-99.99,,,0.00,Acu-Link.com,2013-08-16 12:15:00,
2013-08-16 08:30:00,67.1,55.8,29.97,West,270,0.0,-999.0,67,-99.99,,,0.00,Acu-Link.com,2013-08-16 12:30:00,
2013-08-16 08:45:00,67.8,56.8,29.98,SE,135,1.7,-999.0,68,-99.99,,,0.00,Acu-Link.com,2013-08-16 12:45:00,
2013-08-16 09:00:00,69.1,58.1,29.98,West,270,0.0,-999.0,68,-99.99,,,0.00,Acu-Link.com,2013-08-16 13:00:00,
2013-08-16 09:15:00,68.9,56.6,29.98,SW,225,0.0,-999.0,65,-99.99,,,0.00,Acu-Link.com,2013-08-16 13:15:00,
2013-08-16 09:31:00,69.6,57.3,29.99,West,270,0.0,-999.0,65,-99.99,,,0.00,Acu-Link.com,2013-08-16 13:31:00,
2013-08-16 09:46:00,71.1,57.4,29.99,South,180,0.0,-999.0,62,-99.99,,,0.00,Acu-Link.com,2013-08-16 13:46:00,
2013-08-16 10:01:00,73.6,56.9,29.99,West,270,3.2,-999.0,56,-99.99,,,0.00,Acu-Link.com,2013-08-16 14:01:00,
2013-08-16 10:17:00,75.6,55.1,29.99,West,270,2.7,-999.0,49,-99.99,,,0.00,Acu-Link.com,2013-08-16 14:17:00,
2013-08-16 10:32:00,74.8,54.3,29.99,WSW,247,2.2,-999.0,49,-99.99,,,0.00,Acu-Link.com,2013-08-16 14:32:00,
2013-08-16 10:47:00,75.9,53.6,29.99,West,270,2.7,-999.0,46,-99.99,,,0.00,Acu-Link.com,2013-08-16 14:47:00,
2013-08-16 11:03:00,76.6,54.3,29.99,South,180,0.0,-999.0,46,-99.99,,,0.00,Acu-Link.com,2013-08-16 15:03:00,
2013-08-16 11:18:00,76.8,53.8,29.99,West,270,0.0,-999.0,45,-99.99,,,0.00,Acu-Link.com,2013-08-16 15:18:00,
2013-08-16 11:33:00,79.2,51.4,29.99,West,270,2.2,-999.0,38,-99.99,,,0.00,Acu-Link.com,2013-08-16 15:33:00,
2013-08-16 11:48:00,78.4,51.4,29.99,WSW,247,3.2,-999.0,39,-99.99,,,0.00,Acu-Link.com,2013-08-16 15:48:00,
2013-08-16 12:04:00,77.9,50.9,29.99,WNW,292,0.0,-999.0,39,-99.99,,,0.00,Acu-Link.com,2013-08-16 16:04:00,
2013-08-16 12:19:00,79.5,51.6,29.98,SW,225,1.1,-999.0,38,-99.99,,,0.00,Acu-Link.com,2013-08-16 16:19:00,
2013-08-16 12:34:00,79.9,52.0,29.98,West,270,3.2,-999.0,38,-99.99,,,0.00,Acu-Link.com,2013-08-16 16:34:00,
2013-08-16 12:49:00,79.9,51.3,29.98,West,270,3.7,-999.0,37,-99.99,,,0.00,Acu-Link.com,2013-08-16 16:49:00,
2013-08-16 13:05:00,80.6,52.6,29.98,West,270,2.7,-999.0,38,-99.99,,,0.00,Acu-Link.com,2013-08-16 17:05:00,
2013-08-16 13:20:00,80.4,51.7,29.98,West,270,2.7,-999.0,37,-99.99,,,0.00,Acu-Link.com,2013-08-16 17:20:00,
2013-08-16 13:35:00,80.8,52.1,29.98,WSW,247,4.2,-999.0,37,-99.99,,,0.00,Acu-Link.com,2013-08-16 17:35:00,
2013-08-16 13:50:00,82.0,52.4,29.98,WNW,292,2.7,-999.0,36,-99.99,,,0.00,Acu-Link.com,2013-08-16 17:50:00,
2013-08-16 14:06:00,82.2,52.6,29.98,NNW,337,1.1,-999.0,36,-99.99,,,0.00,Acu-Link.com,2013-08-16 18:06:00,
2013-08-16 14:21:00,81.9,52.3,29.97,West,270,3.7,-999.0,36,-99.99,,,0.00,Acu-Link.com,2013-08-16 18:21:00,
2013-08-16 14:36:00,81.9,53.0,29.97,WSW,247,2.7,-999.0,37,-99.99,,,0.00,Acu-Link.com,2013-08-16 18:36:00,
2013-08-16 14:51:00,82.8,53.1,29.97,West,270,4.2,-999.0,36,-99.99,,,0.00,Acu-Link.com,2013-08-16 18:51:00,
2013-08-16 15:06:00,80.8,51.3,29.96,West,270,3.7,-999.0,36,-99.99,,,0.00,Acu-Link.com,2013-08-16 19:06:00,
2013-08-16 15:21:00,82.6,52.9,29.96,East,90,3.2,-999.0,36,-99.99,,,0.00,Acu-Link.com,2013-08-16 19:21:00,
2013-08-16 15:36:00,84.0,53.4,29.96,ESE,112,1.1,-999.0,35,-99.99,,,0.00,Acu-Link.com,2013-08-16 19:36:00,
2013-08-16 15:51:00,81.7,53.6,29.96,SE,135,1.1,-999.0,38,-99.99,,,0.00,Acu-Link.com,2013-08-16 19:51:00,
2013-08-16 16:06:00,82.4,53.5,29.96,East,90,2.7,-999.0,37,-99.99,,,0.00,Acu-Link.com,2013-08-16 20:06:00,
2013-08-16 16:22:00,83.5,53.7,29.96,ESE,112,0.0,-999.0,36,-99.99,,,0.00,Acu-Link.com,2013-08-16 20:22:00,
2013-08-16 16:37:00,81.7,53.6,29.96,NW,315,0.0,-999.0,38,-99.99,,,0.00,Acu-Link.com,2013-08-16 20:37:00,
2013-08-16 16:53:00,82.8,53.8,29.96,SSW,202,0.0,-999.0,37,-99.99,,,0.00,Acu-Link.com,2013-08-16 20:53:00,
2013-08-16 17:08:00,80.4,53.8,29.96,East,90,0.0,-999.0,40,-99.99,,,0.00,Acu-Link.com,2013-08-16 21:08:00,
2013-08-16 17:23:00,82.8,54.6,29.97,ESE,112,0.0,-999.0,38,-99.99,,,0.00,Acu-Link.com,2013-08-16 21:23:00,
2013-08-16 17:39:00,82.2,55.4,29.97,East,90,2.7,-999.0,40,-99.99,,,0.00,Acu-Link.com,2013-08-16 21:39:00,
2013-08-16 17:54:00,80.8,55.5,29.97,East,90,2.7,-999.0,42,-99.99,,,0.00,Acu-Link.com,2013-08-16 21:54:00,
2013-08-16 18:09:00,80.8,55.5,29.96,WNW,292,1.7,-999.0,42,-99.99,,,0.00,Acu-Link.com,2013-08-16 22:09:00,
2013-08-16 18:25:00,81.0,55.1,29.96,NW,315,0.0,-999.0,41,-99.99,,,0.00,Acu-Link.com,2013-08-16 22:25:00,
2013-08-16 18:40:00,78.4,54.0,29.97,East,90,2.2,-999.0,43,-99.99,,,0.00,Acu-Link.com,2013-08-16 22:40:00,
2013-08-16 18:55:00,77.4,54.4,29.97,NNW,337,3.2,-999.0,45,-99.99,,,0.00,Acu-Link.com,2013-08-16 22:55:00,
2013-08-16 19:10:00,76.5,55.3,29.98,ESE,112,2.2,-999.0,48,-99.99,,,0.00,Acu-Link.com,2013-08-16 23:10:00,
2013-08-16 19:26:00,76.3,55.1,29.98,NNW,337,3.2,-999.0,48,-99.99,,,0.00,Acu-Link.com,2013-08-16 23:26:00,
2013-08-16 19:41:00,75.4,53.8,29.99,ESE,112,1.7,-999.0,47,-99.99,,,0.00,Acu-Link.com,2013-08-16 23:41:00,
2013-08-16 19:56:00,75.6,53.9,29.99,NE,45,0.0,-999.0,47,-99.99,,,0.00,Acu-Link.com,2013-08-16 23:56:00,
2013-08-16 20:12:00,75.2,54.1,30.00,ESE,112,1.7,-999.0,48,-99.99,,,0.00,Acu-Link.com,2013-08-17 00:12:00,
2013-08-16 20:27:00,74.5,54.1,29.99,East,90,2.2,-999.0,49,-99.99,,,0.00,Acu-Link.com,2013-08-17 00:27:00,
2013-08-16 20:42:00,74.5,54.6,29.99,East,90,1.7,-999.0,50,-99.99,,,0.00,Acu-Link.com,2013-08-17 00:42:00,
2013-08-16 20:58:00,74.1,54.3,30.00,WNW,292,1.1,-999.0,50,-99.99,,,0.00,Acu-Link.com,2013-08-17 00:58:00,
2013-08-16 21:13:00,73.9,54.6,30.01,ESE,112,1.7,-999.0,51,-99.99,,,0.00,Acu-Link.com,2013-08-17 01:13:00,
2013-08-16 21:28:00,73.9,55.2,30.01,ENE,67,1.7,-999.0,52,-99.99,,,0.00,Acu-Link.com,2013-08-17 01:28:00,
2013-08-16 21:43:00,73.8,55.6,30.02,SSE,157,0.0,-999.0,53,-99.99,,,0.00,Acu-Link.com,2013-08-17 01:43:00,
2013-08-16 21:59:00,73.8,55.1,30.01,West,270,2.2,-999.0,52,-99.99,,,0.00,Acu-Link.com,2013-08-17 01:59:00,
2013-08-16 22:14:00,73.4,55.7,30.01,WSW,247,1.7,-999.0,54,-99.99,,,0.00,Acu-Link.com,2013-08-17 02:14:00,
2013-08-16 22:29:00,72.9,57.7,30.01,SE,135,0.0,-999.0,59,-99.99,,,0.00,Acu-Link.com,2013-08-17 02:29:00,
2013-08-16 22:45:00,72.5,57.8,30.02,NE,45,0.0,-999.0,60,-99.99,,,0.00,Acu-Link.com,2013-08-17 02:45:00,
2013-08-16 23:00:00,72.1,57.9,30.02,West,270,4.2,-999.0,61,-99.99,,,0.00,Acu-Link.com,2013-08-17 03:00:00,
2013-08-16 23:15:00,72.0,57.3,30.02,West,270,4.2,-999.0,60,-99.99,,,0.00,Acu-Link.com,2013-08-17 03:15:00,
2013-08-16 23:31:00,72.0,57.3,30.02,West,270,4.7,-999.0,60,-99.99,,,0.00,Acu-Link.com,2013-08-17 03:31:00,
2013-08-16 23:46:00,71.6,57.4,30.02,WNW,292,4.7,-999.0,61,-99.99,,,0.00,Acu-Link.com,2013-08-17 03:46:00,